Weather History for KNFL - May, 2013

Change the Weather History Date:

Tuesday, May 14, 2013

  Actual Average Record
Temperature  
Mean Temperature 68 °F -  
Max Temperature 87 °F 74 °F 95 °F (2012)
Min Temperature 50 °F 42 °F 28 °F (1956)
Cooling Degree Days 3    
Growing Degree Days 18 (Base 50)    
Moisture  
Dew Point 30 °F    
Average Humidity 27    
Maximum Humidity 59    
Minimum Humidity 8    
Precipitation  
Precipitation 0.00 in - - ()
Sea Level Pressure  
Sea Level Pressure 29.93 in    
Wind  
Wind Speed 6 mph (WSW)    
Max Wind Speed 25 mph    
Max Gust Speed 34 mph    
Visibility 10 miles    
Events      
Averages and records for this station are not official NWS values.
T = Trace of Precipitation, MM = Missing Value Source: NWS Daily Summary

Daily Weather History Graph

Daily Weather History Graph

Search for Another Location

Airport or City:

Trip Planner

Search our weather history database for the weather conditions in past years. The results will help you decide how hot, cold, wet, or windy it might be!

Date:

Astronomy

May. 14, 2013 Rise Set
Actual Time 5:41 AM PDT 8:01 PM PDT
Civil Twilight 5:11 AM PDT 8:31 PM PDT
Nautical Twilight 4:34 AM PDT 9:08 PM PDT
Astronomical Twilight 3:53 AM PDT 9:50 PM PDT
Moon 9:25 AM PDT (5/14) 11:51 PM PDT (5/14)
Length of Visible Light 15h 20m
Length of Day
14h 19m
Waxing Crescent, 19% of the Moon is Illuminated
May 14
Waxing Crescent
May 17
First Quarter
May 24
Full
May 31
Last Quarter
Jun 8
New

Hourly Weather History & Observations

Time (PDT) Temp. Dew Point Humidity Pressure Visibility Wind Dir Wind Speed Gust Speed Precip Events Conditions
12:56 AM 61.0 °F 28.0 °F 29% 29.98 in 10.0 mi West 4.6 mph - N/A   Clear
1:26 AM 60.8 °F 26.6 °F 27% 30.07 in 10.0 mi Calm Calm - N/A   Clear
1:56 AM 57.0 °F 27.0 °F 32% 29.98 in 10.0 mi Calm Calm - N/A   Clear
2:56 AM 57.0 °F 28.0 °F 33% 29.98 in 10.0 mi West 5.8 mph - N/A   Clear
3:56 AM 50.0 °F 28.0 °F 43% 29.98 in 10.0 mi Calm Calm - N/A   Clear
4:56 AM 51.1 °F 32.0 °F 48% 29.97 in 10.0 mi South 4.6 mph - N/A   Clear
5:56 AM 50.0 °F 36.0 °F 59% 29.97 in 10.0 mi SSW 3.5 mph - N/A   Clear
6:17 AM 51.8 °F 35.6 °F 54% 30.06 in 10.0 mi South 3.5 mph - N/A   Mostly Cloudy
6:56 AM 54.0 °F 33.1 °F 45% 29.97 in 10.0 mi SSW 3.5 mph - N/A   Scattered Clouds
7:56 AM 62.1 °F 32.0 °F 32% 29.97 in 10.0 mi Calm Calm - N/A   Scattered Clouds
8:56 AM 70.0 °F 34.0 °F 27% 29.96 in 10.0 mi WNW 5.8 mph - N/A   Scattered Clouds
9:56 AM 73.9 °F 33.1 °F 22% 29.95 in 10.0 mi WSW 4.6 mph - N/A   Scattered Clouds
10:56 AM 80.1 °F 30.9 °F 17% 29.93 in 10.0 mi Variable 4.6 mph - N/A   Scattered Clouds
11:56 AM 81.0 °F 27.0 °F 14% 29.91 in 10.0 mi NE 4.6 mph - N/A   Mostly Cloudy
12:56 PM 84.0 °F 26.1 °F 12% 29.88 in 10.0 mi NNE 9.2 mph - N/A   Scattered Clouds
1:56 PM 86.0 °F 24.1 °F 10% 29.86 in 10.0 mi North 10.4 mph 16.1 mph N/A   Mostly Cloudy
2:56 PM 84.9 °F 23.0 °F 10% 29.85 in 10.0 mi WNW 8.1 mph - N/A   Mostly Cloudy
3:56 PM 84.9 °F 17.1 °F 8% 29.83 in 10.0 mi West 12.7 mph - N/A   Overcast
4:13 PM 80.6 °F 28.4 °F 15% 29.92 in 6.0 mi SSW 24.2 mph 33.4 mph N/A   Widespread Dust
4:56 PM 81.0 °F 28.0 °F 14% 29.86 in 10.0 mi West 12.7 mph 21.9 mph N/A   Mostly Cloudy
5:10 PM 78.8 °F 30.2 °F 17% 29.95 in 10.0 mi WSW 25.3 mph 34.5 mph N/A   Mostly Cloudy
5:56 PM 75.9 °F 30.9 °F 19% 29.86 in 10.0 mi SW 24.2 mph - N/A   Mostly Cloudy
6:56 PM 75.9 °F 32.0 °F 20% 29.85 in 10.0 mi Calm Calm - N/A   Mostly Cloudy
7:56 PM 75.0 °F 33.1 °F 22% 29.86 in 10.0 mi SW 11.5 mph - N/A   Mostly Cloudy
8:56 PM 71.1 °F 34.0 °F 26% 29.88 in 10.0 mi South 6.9 mph - N/A   Mostly Cloudy
9:56 PM 71.1 °F 37.0 °F 29% 29.90 in 10.0 mi WSW 9.2 mph - N/A   Mostly Cloudy
10:56 PM 66.9 °F 39.0 °F 36% 29.90 in 10.0 mi West 9.2 mph - N/A   Clear
11:56 PM 66.9 °F 37.9 °F 34% 29.91 in 10.0 mi West 9.2 mph - N/A   Clear